Wetterdaten: Mittwoch, 03.02.2016
Datum Zeit Auen-Temp. Temp gefhlt Luftfeuchte Luftdruck Regen Wind Richtung Richtung Taupunkt Windben
03.02.2016 00:00 6,6 C 5,9 C 65 % 1018,9 hPa 0,0 mm 20,2 km/h (4 Bft) NW 315 0,5 C 18,6 km/h (3 Bft)
03.02.2016 00:05 6,5 C 5,8 C 65 % 1019,0 hPa 0,0 mm 18,1 km/h (3 Bft) W-NW 292 0,4 C 17,6 km/h (3 Bft)
03.02.2016 00:10 6,2 C 5,6 C 65 % 1019,0 hPa 0,0 mm 12,4 km/h (3 Bft) W-SW 247 0,1 C 19,2 km/h (3 Bft)
03.02.2016 00:15 6,1 C 5,5 C 65 % 1019,0 hPa 0,0 mm 11,4 km/h (2 Bft) W-SW 247 0,0 C 15,0 km/h (3 Bft)
03.02.2016 00:20 6,0 C 5,5 C 65 % 1019,0 hPa 0,0 mm 12,4 km/h (3 Bft) SW 225 -0,1 C 24,6 km/h (4 Bft)
03.02.2016 00:25 6,3 C 5,7 C 65 % 1018,9 hPa 0,0 mm 13,5 km/h (3 Bft) W-NW 292 0,2 C 16,1 km/h (3 Bft)
03.02.2016 00:30 6,4 C 5,6 C 64 % 1018,9 hPa 0,0 mm 14,0 km/h (3 Bft) W-SW 247 0,1 C 30,0 km/h (5 Bft)
03.02.2016 00:35 6,2 C 5,5 C 64 % 1018,9 hPa 0,0 mm 12,2 km/h (2 Bft) W-SW 247 -0,1 C 32,6 km/h (5 Bft)
03.02.2016 00:40 6,2 C 5,5 C 64 % 1018,9 hPa 0,0 mm 12,4 km/h (3 Bft) W-SW 247 -0,1 C 19,2 km/h (3 Bft)
03.02.2016 00:45 6,1 C 5,5 C 63 % 1018,6 hPa 0,0 mm 11,1 km/h (2 Bft) W 270 -0,4 C 18,6 km/h (3 Bft)
03.02.2016 00:50 6,9 C 6,2 C 63 % 1018,6 hPa 0,0 mm 15,3 km/h (3 Bft) NW 315 0,4 C 34,4 km/h (5 Bft)
03.02.2016 00:55 7,0 C 6,0 C 61 % 1018,6 hPa 0,0 mm 19,2 km/h (3 Bft) W 270 0,0 C 35,5 km/h (5 Bft)
03.02.2016 01:00 6,8 C 6,2 C 60 % 1018,6 hPa 0,0 mm 17,9 km/h (3 Bft) W-SW 247 -0,4 C 12,7 km/h (3 Bft)
03.02.2016 01:05 6,7 C 6,1 C 60 % 1018,7 hPa 0,0 mm 15,8 km/h (3 Bft) W-NW 292 -0,5 C 20,5 km/h (4 Bft)
03.02.2016 01:10 6,6 C 6,1 C 60 % 1018,7 hPa 0,0 mm 15,3 km/h (3 Bft) NW 315 -0,6 C 18,1 km/h (3 Bft)
03.02.2016 01:15 6,6 C 6,1 C 60 % 1018,7 hPa 0,0 mm 14,5 km/h (3 Bft) W 270 -0,6 C 11,4 km/h (2 Bft)
03.02.2016 01:20 6,1 C 5,6 C 60 % 1018,7 hPa 0,0 mm 10,6 km/h (2 Bft) SW 225 -1,1 C 15,8 km/h (3 Bft)
03.02.2016 01:25 6,0 C 5,6 C 61 % 1018,6 hPa 0,0 mm 9,1 km/h (2 Bft) S-SW 202 -0,9 C 13,2 km/h (3 Bft)
03.02.2016 01:30 5,8 C 5,5 C 62 % 1018,6 hPa 0,0 mm 7,8 km/h (2 Bft) W 270 -0,9 C 10,9 km/h (2 Bft)
03.02.2016 01:35 6,0 C 5,5 C 61 % 1018,6 hPa 0,0 mm 8,3 km/h (2 Bft) W-SW 247 -0,9 C 13,2 km/h (3 Bft)
03.02.2016 01:40 6,0 C 5,6 C 61 % 1018,6 hPa 0,0 mm 9,1 km/h (2 Bft) SW 225 -0,9 C 7,3 km/h (2 Bft)
03.02.2016 01:45 5,8 C 5,5 C 63 % 1018,4 hPa 0,0 mm 7,5 km/h (2 Bft) W-SW 247 -0,7 C 9,8 km/h (2 Bft)
03.02.2016 01:50 5,9 C 5,7 C 63 % 1018,4 hPa 0,0 mm 6,5 km/h (2 Bft) W-SW 247 -0,6 C 9,1 km/h (2 Bft)
03.02.2016 01:55 6,3 C 5,9 C 62 % 1018,4 hPa 0,0 mm 8,0 km/h (2 Bft) W-NW 292 -0,4 C 18,1 km/h (3 Bft)
03.02.2016 02:00 6,8 C 6,2 C 61 % 1018,4 hPa 0,0 mm 11,4 km/h (2 Bft) W 270 -0,2 C 24,1 km/h (4 Bft)
03.02.2016 02:05 6,9 C 6,4 C 60 % 1018,4 hPa 0,0 mm 11,9 km/h (2 Bft) W 270 -0,3 C 9,8 km/h (2 Bft)
03.02.2016 02:10 7,1 C 6,6 C 60 % 1018,4 hPa 0,0 mm 12,2 km/h (2 Bft) W-NW 292 -0,1 C 19,9 km/h (4 Bft)
03.02.2016 02:15 7,2 C 6,7 C 60 % 1018,4 hPa 0,0 mm 12,2 km/h (2 Bft) W 270 -0,0 C 18,1 km/h (3 Bft)
03.02.2016 02:20 7,3 C 7,0 C 60 % 1018,4 hPa 0,0 mm 13,2 km/h (3 Bft) W-SW 247 0,1 C 15,0 km/h (3 Bft)
03.02.2016 02:25 7,3 C 6,8 C 60 % 1018,6 hPa 0,0 mm 14,0 km/h (3 Bft) W-NW 292 0,1 C 25,4 km/h (4 Bft)
03.02.2016 02:30 7,4 C 7,1 C 60 % 1018,6 hPa 0,0 mm 13,5 km/h (3 Bft) W-NW 292 0,2 C 21,0 km/h (4 Bft)
03.02.2016 02:35 7,5 C 7,0 C 59 % 1018,6 hPa 0,0 mm 13,5 km/h (3 Bft) W-SW 247 0,0 C 14,5 km/h (3 Bft)
03.02.2016 02:40 7,5 C 7,0 C 59 % 1018,6 hPa 0,0 mm 13,7 km/h (3 Bft) W 270 0,0 C 16,8 km/h (3 Bft)
03.02.2016 02:45 7,5 C 7,2 C 59 % 1018,4 hPa 0,0 mm 12,7 km/h (3 Bft) W-NW 292 0,0 C 12,4 km/h (3 Bft)
03.02.2016 02:50 7,5 C 7,1 C 59 % 1018,4 hPa 0,0 mm 11,9 km/h (2 Bft) NW 315 0,0 C 14,8 km/h (3 Bft)
03.02.2016 02:55 7,4 C 7,0 C 60 % 1018,4 hPa 0,0 mm 12,2 km/h (2 Bft) W-NW 292 0,2 C 14,0 km/h (3 Bft)
03.02.2016 03:00 7,4 C 7,1 C 60 % 1018,4 hPa 0,0 mm 13,7 km/h (3 Bft) W-NW 292 0,2 C 21,5 km/h (4 Bft)
03.02.2016 03:05 7,3 C 7,0 C 60 % 1018,3 hPa 0,0 mm 15,8 km/h (3 Bft) W 270 0,1 C 18,9 km/h (3 Bft)
03.02.2016 03:10 7,1 C 6,7 C 62 % 1018,3 hPa 0,0 mm 16,3 km/h (3 Bft) W-SW 247 0,3 C 14,5 km/h (3 Bft)
03.02.2016 03:15 7,0 C 6,4 C 63 % 1018,3 hPa 0,0 mm 14,8 km/h (3 Bft) W-NW 292 0,4 C 20,7 km/h (4 Bft)
03.02.2016 03:20 6,8 C 6,4 C 64 % 1018,3 hPa 0,0 mm 11,1 km/h (2 Bft) W 270 0,5 C 10,6 km/h (2 Bft)
03.02.2016 03:25 6,8 C 6,3 C 65 % 1018,2 hPa 0,0 mm 10,9 km/h (2 Bft) W-SW 247 0,7 C 9,8 km/h (2 Bft)
03.02.2016 03:30 6,7 C 6,3 C 66 % 1018,2 hPa 0,0 mm 11,1 km/h (2 Bft) W 270 0,8 C 19,4 km/h (3 Bft)
03.02.2016 03:35 6,5 C 6,1 C 66 % 1018,2 hPa 0,0 mm 11,1 km/h (2 Bft) W 270 0,6 C 12,7 km/h (3 Bft)
03.02.2016 03:40 6,4 C 5,9 C 68 % 1018,2 hPa 0,0 mm 11,9 km/h (2 Bft) W-NW 292 0,9 C 10,6 km/h (2 Bft)
03.02.2016 03:45 6,2 C 5,7 C 68 % 1017,5 hPa 0,0 mm 10,4 km/h (2 Bft) O-NO 67 0,7 C 8,5 km/h (2 Bft)
03.02.2016 03:50 6,1 C 5,7 C 69 % 1017,5 hPa 0,0 mm 9,1 km/h (2 Bft) W-SW 247 0,8 C 14,5 km/h (3 Bft)
03.02.2016 03:55 6,0 C 5,6 C 69 % 1017,5 hPa 0,0 mm 8,8 km/h (2 Bft) W-NW 292 0,8 C 15,0 km/h (3 Bft)
03.02.2016 04:00 6,1 C 5,5 C 70 % 1017,5 hPa 0,0 mm 10,4 km/h (2 Bft) W 270 1,0 C 13,5 km/h (3 Bft)
03.02.2016 04:05 6,0 C 5,4 C 70 % 1017,3 hPa 0,0 mm 11,7 km/h (2 Bft) W-SW 247 1,0 C 18,6 km/h (3 Bft)
03.02.2016 04:10 6,1 C 5,6 C 71 % 1017,3 hPa 0,0 mm 12,4 km/h (3 Bft) W-SW 247 1,2 C 15,0 km/h (3 Bft)
03.02.2016 04:15 6,0 C 5,4 C 71 % 1017,3 hPa 0,0 mm 12,2 km/h (2 Bft) W-NW 292 1,1 C 12,7 km/h (3 Bft)
03.02.2016 04:20 5,7 C 5,2 C 73 % 1017,3 hPa 0,0 mm 10,9 km/h (2 Bft) W-SW 247 1,2 C 9,6 km/h (2 Bft)
03.02.2016 04:25 5,6 C 5,1 C 74 % 1017,2 hPa 0,0 mm 10,4 km/h (2 Bft) W 270 1,3 C 19,2 km/h (3 Bft)
03.02.2016 04:30 5,5 C 4,9 C 74 % 1017,2 hPa 0,0 mm 10,9 km/h (2 Bft) W-NW 292 1,2 C 13,2 km/h (3 Bft)
03.02.2016 04:35 5,4 C 4,8 C 75 % 1017,2 hPa 0,0 mm 10,9 km/h (2 Bft) SW 225 1,3 C 11,7 km/h (2 Bft)
03.02.2016 04:39 5,4 C 4,7 C 76 % 1017,2 hPa 0,0 mm 10,9 km/h (2 Bft) W-NW 292 1,5 C 13,7 km/h (3 Bft)
03.02.2016 04:41 5,4 C 4,7 C 76 % 1017,2 hPa 0,0 mm 10,9 km/h (2 Bft) W-NW 292 1,5 C 13,7 km/h (3 Bft)
03.02.2016 04:45 5,2 C 4,6 C 76 % 1017,0 hPa 0,0 mm 9,8 km/h (2 Bft) W-SW 247 1,3 C 8,3 km/h (2 Bft)
03.02.2016 04:50 5,0 C 4,5 C 76 % 1017,0 hPa 0,0 mm 8,3 km/h (2 Bft) W 270 1,1 C 10,6 km/h (2 Bft)
03.02.2016 04:55 4,8 C 4,4 C 76 % 1017,0 hPa 0,0 mm 7,5 km/h (2 Bft) W 270 0,9 C 15,5 km/h (3 Bft)
03.02.2016 05:00 4,7 C 4,4 C 77 % 1017,0 hPa 0,0 mm 7,0 km/h (2 Bft) W-SW 247 1,0 C 11,4 km/h (2 Bft)
03.02.2016 05:05 4,6 C 4,3 C 77 % 1017,1 hPa 0,0 mm 6,2 km/h (2 Bft) W 270 0,9 C 3,9 km/h (1 Bft)
03.02.2016 05:10 4,4 C 4,3 C 76 % 1017,1 hPa 0,0 mm 4,7 km/h (1 Bft) W-NW 292 0,5 C 4,4 km/h (1 Bft)
03.02.2016 05:15 4,2 C 4,1 C 76 % 1017,1 hPa 0,0 mm 4,1 km/h (1 Bft) W 270 0,4 C 7,0 km/h (2 Bft)
03.02.2016 05:20 4,1 C 4,1 C 77 % 1017,1 hPa 0,0 mm 3,6 km/h (1 Bft) NW 315 0,4 C 8,5 km/h (2 Bft)
03.02.2016 05:25 4,5 C 4,3 C 78 % 1016,7 hPa 0,0 mm 4,9 km/h (1 Bft) NW 315 1,0 C 6,0 km/h (2 Bft)
03.02.2016 05:30 4,6 C 4,4 C 78 % 1016,7 hPa 0,0 mm 5,7 km/h (1 Bft) W-NW 292 1,1 C 6,7 km/h (2 Bft)
03.02.2016 05:35 4,5 C 4,5 C 78 % 1016,7 hPa 0,0 mm 4,4 km/h (1 Bft) NW 315 1,0 C 0,0 km/h (0 Bft)
03.02.2016 05:40 4,1 C 4,1 C 78 % 1016,7 hPa 0,0 mm 1,8 km/h (1 Bft) NW 315 0,6 C 0,0 km/h (0 Bft)
03.02.2016 05:45 4,0 C 3,9 C 78 % 1016,5 hPa 0,0 mm 0,3 km/h (0 Bft) N-NW 337 0,5 C 0,0 km/h (0 Bft)
03.02.2016 05:50 3,9 C 3,8 C 78 % 1016,5 hPa 0,0 mm 0,8 km/h (0 Bft) N-NW 337 0,4 C 2,8 km/h (1 Bft)
03.02.2016 05:55 3,8 C 3,8 C 78 % 1016,5 hPa 0,0 mm 1,0 km/h (0 Bft) W 270 0,3 C 0,0 km/h (0 Bft)
03.02.2016 06:00 3,9 C 3,8 C 79 % 1016,5 hPa 0,0 mm 0,5 km/h (0 Bft) NW 315 0,6 C 0,0 km/h (0 Bft)
03.02.2016 06:05 4,1 C 3,9 C 79 % 1016,5 hPa 0,0 mm 0,0 km/h (0 Bft) O 90 0,8 C 0,0 km/h (0 Bft)
03.02.2016 06:10 4,2 C 4,1 C 76 % 1016,5 hPa 0,0 mm 0,3 km/h (0 Bft) O-SO 112 0,4 C 0,0 km/h (0 Bft)
03.02.2016 06:15 4,5 C 4,3 C 82 % 1016,5 hPa 0,0 mm 1,0 km/h (0 Bft) SO 135 1,7 C 4,4 km/h (1 Bft)
03.02.2016 06:20 4,4 C 4,3 C 81 % 1016,5 hPa 0,0 mm 1,0 km/h (0 Bft) O-NO 67 1,4 C 0,0 km/h (0 Bft)
03.02.2016 06:25 4,4 C 4,3 C 81 % 1016,7 hPa 0,0 mm 1,0 km/h (0 Bft) N 360 1,4 C 0,0 km/h (0 Bft)
03.02.2016 06:30 4,4 C 4,3 C 81 % 1016,7 hPa 0,0 mm 1,0 km/h (0 Bft) N-NW 337 1,4 C 0,0 km/h (0 Bft)
03.02.2016 06:35 4,3 C 4,3 C 81 % 1016,7 hPa 0,0 mm 1,0 km/h (0 Bft) N-NW 337 1,3 C 5,7 km/h (1 Bft)
03.02.2016 06:40 4,2 C 4,1 C 81 % 1016,7 hPa 0,0 mm 1,6 km/h (1 Bft) SW 225 1,2 C 3,9 km/h (1 Bft)
03.02.2016 06:45 4,1 C 4,0 C 81 % 1016,5 hPa 0,0 mm 2,1 km/h (1 Bft) N-NW 337 1,1 C 0,0 km/h (0 Bft)
03.02.2016 06:50 3,9 C 3,8 C 81 % 1016,5 hPa 0,0 mm 1,3 km/h (1 Bft) O-NO 67 0,9 C 0,0 km/h (0 Bft)
03.02.2016 06:55 3,9 C 3,7 C 82 % 1016,5 hPa 0,0 mm 0,3 km/h (0 Bft) NO 45 1,1 C 0,0 km/h (0 Bft)
03.02.2016 07:00 3,8 C 3,6 C 83 % 1016,5 hPa 0,0 mm 0,8 km/h (0 Bft) NO 45 1,2 C 3,1 km/h (1 Bft)
03.02.2016 07:05 3,7 C 3,5 C 83 % 1016,5 hPa 0,0 mm 1,6 km/h (1 Bft) O-NO 67 1,1 C 0,0 km/h (0 Bft)
03.02.2016 07:10 3,7 C 3,5 C 83 % 1016,5 hPa 0,0 mm 0,8 km/h (0 Bft) NO 45 1,1 C 0,0 km/h (0 Bft)
03.02.2016 07:15 3,7 C 3,5 C 83 % 1016,5 hPa 0,0 mm 0,0 km/h (0 Bft) O-NO 67 1,1 C 0,0 km/h (0 Bft)
03.02.2016 07:20 3,6 C 3,4 C 83 % 1016,5 hPa 0,0 mm 0,8 km/h (0 Bft) N-NO 22 1,0 C 3,9 km/h (1 Bft)
03.02.2016 07:25 3,6 C 3,4 C 84 % 1016,5 hPa 0,0 mm 1,6 km/h (1 Bft) O-NO 67 1,2 C 0,0 km/h (0 Bft)
03.02.2016 07:30 3,5 C 3,3 C 84 % 1016,5 hPa 0,7 mm 1,0 km/h (0 Bft) N-NW 337 1,1 C 0,0 km/h (0 Bft)
03.02.2016 07:35 3,5 C 3,3 C 84 % 1016,5 hPa 0,0 mm 1,0 km/h (0 Bft) N-NO 22 1,1 C 3,4 km/h (1 Bft)
03.02.2016 07:40 3,5 C 3,3 C 84 % 1016,5 hPa 0,0 mm 2,1 km/h (1 Bft) N-NO 22 1,1 C 3,1 km/h (1 Bft)
03.02.2016 07:45 3,5 C 3,3 C 84 % 1016,4 hPa 0,0 mm 1,6 km/h (1 Bft) O-NO 67 1,1 C 0,0 km/h (0 Bft)
03.02.2016 07:50 3,4 C 3,2 C 84 % 1016,4 hPa 0,0 mm 1,3 km/h (1 Bft) NW 315 1,0 C 2,6 km/h (1 Bft)
03.02.2016 07:55 3,4 C 3,2 C 85 % 1016,4 hPa 0,7 mm 2,3 km/h (1 Bft) N-NW 337 1,1 C 3,1 km/h (1 Bft)
03.02.2016 08:00 3,2 C 3,1 C 85 % 1016,4 hPa 0,0 mm 3,6 km/h (1 Bft) NW 315 0,9 C 4,7 km/h (1 Bft)
03.02.2016 08:05 3,2 C 3,1 C 85 % 1016,7 hPa 0,0 mm 4,1 km/h (1 Bft) NW 315 0,9 C 9,1 km/h (2 Bft)
03.02.2016 08:10 2,9 C 2,4 C 86 % 1016,7 hPa 0,0 mm 7,5 km/h (2 Bft) N 360 0,8 C 10,4 km/h (2 Bft)
03.02.2016 08:15 2,7 C 2,1 C 86 % 1016,7 hPa 0,7 mm 8,3 km/h (2 Bft) N 360 0,6 C 12,2 km/h (2 Bft)
03.02.2016 08:20 2,0 C 1,4 C 86 % 1016,7 hPa 0,0 mm 8,5 km/h (2 Bft) N-NO 22 -0,1 C 7,5 km/h (2 Bft)
03.02.2016 08:25 1,6 C 0,8 C 86 % 1017,2 hPa 0,7 mm 9,1 km/h (2 Bft) W-NW 292 -0,5 C 7,3 km/h (2 Bft)
03.02.2016 08:30 1,2 C 0,7 C 85 % 1017,2 hPa 0,0 mm 6,2 km/h (2 Bft) W-NW 292 -1,0 C 4,4 km/h (1 Bft)
03.02.2016 08:35 1,1 C 0,7 C 85 % 1017,2 hPa 0,0 mm 4,4 km/h (1 Bft) W 270 -1,1 C 0,0 km/h (0 Bft)
03.02.2016 08:40 0,9 C 0,6 C 85 % 1017,2 hPa 0,0 mm 2,3 km/h (1 Bft) W-SW 247 -1,3 C 0,0 km/h (0 Bft)
03.02.2016 08:45 0,9 C 0,6 C 85 % 1017,2 hPa 0,0 mm 1,6 km/h (1 Bft) W-SW 247 -1,3 C 0,0 km/h (0 Bft)
03.02.2016 08:50 0,9 C 0,6 C 86 % 1017,2 hPa 0,0 mm 0,8 km/h (0 Bft) SW 225 -1,2 C 3,6 km/h (1 Bft)
03.02.2016 08:55 0,9 C 0,6 C 86 % 1017,2 hPa 0,0 mm 0,8 km/h (0 Bft) W-SW 247 -1,2 C 3,4 km/h (1 Bft)
03.02.2016 09:00 0,8 C 0,5 C 86 % 1017,2 hPa 0,0 mm 1,0 km/h (0 Bft) SW 225 -1,3 C 0,0 km/h (0 Bft)
03.02.2016 09:05 0,8 C 0,5 C 86 % 1017,3 hPa 0,0 mm 0,8 km/h (0 Bft) S 180 -1,3 C 0,0 km/h (0 Bft)
03.02.2016 09:10 0,8 C 0,6 C 86 % 1017,3 hPa 0,0 mm 0,3 km/h (0 Bft) W 270 -1,3 C 0,0 km/h (0 Bft)
03.02.2016 09:15 0,8 C 0,6 C 86 % 1017,3 hPa 0,0 mm 0,3 km/h (0 Bft) W-SW 247 -1,3 C 0,0 km/h (0 Bft)
03.02.2016 09:20 0,8 C 0,6 C 87 % 1017,3 hPa 0,0 mm 2,1 km/h (1 Bft) W-NW 292 -1,1 C 8,0 km/h (2 Bft)
03.02.2016 09:25 0,8 C 0,6 C 87 % 1017,6 hPa 0,0 mm 4,1 km/h (1 Bft) NW 315 -1,1 C 8,8 km/h (2 Bft)
03.02.2016 09:30 0,7 C 0,4 C 83 % 1017,6 hPa 0,0 mm 4,9 km/h (1 Bft) S-SW 202 -1,8 C 3,4 km/h (1 Bft)
03.02.2016 09:35 0,7 C 0,4 C 87 % 1017,6 hPa 0,0 mm 4,4 km/h (1 Bft) W 270 -1,2 C 3,4 km/h (1 Bft)
03.02.2016 09:40 0,7 C 0,5 C 87 % 1017,6 hPa 0,0 mm 3,1 km/h (1 Bft) W 270 -1,2 C 0,0 km/h (0 Bft)
03.02.2016 09:45 0,6 C 0,5 C 83 % 1017,8 hPa 0,0 mm 1,8 km/h (1 Bft) W 270 -1,9 C 2,6 km/h (1 Bft)
03.02.2016 09:50 0,6 C 0,4 C 88 % 1017,8 hPa 0,0 mm 2,6 km/h (1 Bft) W 270 -1,2 C 9,6 km/h (2 Bft)
03.02.2016 09:55 0,6 C 0,3 C 88 % 1017,8 hPa 0,0 mm 4,4 km/h (1 Bft) W 270 -1,2 C 3,4 km/h (1 Bft)
03.02.2016 10:00 0,5 C 0,4 C 83 % 1017,8 hPa 0,0 mm 3,4 km/h (1 Bft) W 270 -2,0 C 4,1 km/h (1 Bft)
03.02.2016 10:05 0,5 C 0,5 C 83 % 1017,7 hPa 0,0 mm 1,3 km/h (1 Bft) W 270 -2,0 C 0,0 km/h (0 Bft)
03.02.2016 10:10 0,5 C 0,5 C 84 % 1017,7 hPa 0,0 mm 1,3 km/h (1 Bft) W 270 -1,9 C 3,6 km/h (1 Bft)
03.02.2016 10:15 0,6 C 0,5 C 84 % 1017,7 hPa 0,0 mm 0,8 km/h (0 Bft) W 270 -1,8 C 3,4 km/h (1 Bft)
03.02.2016 10:20 0,6 C 0,6 C 84 % 1017,7 hPa 0,0 mm 1,3 km/h (1 Bft) W-SW 247 -1,8 C 0,0 km/h (0 Bft)
03.02.2016 10:25 0,6 C 0,6 C 84 % 1017,8 hPa 0,0 mm 1,3 km/h (1 Bft) W-NW 292 -1,8 C 0,0 km/h (0 Bft)
03.02.2016 10:30 0,7 C 0,7 C 84 % 1017,8 hPa 0,7 mm 1,3 km/h (1 Bft) W 270 -1,7 C 3,9 km/h (1 Bft)
03.02.2016 10:35 0,7 C 0,7 C 84 % 1017,8 hPa 0,0 mm 1,3 km/h (1 Bft) W 270 -1,7 C 0,0 km/h (0 Bft)
03.02.2016 10:40 0,7 C 0,8 C 84 % 1017,8 hPa 0,0 mm 1,3 km/h (1 Bft) W 270 -1,7 C 0,0 km/h (0 Bft)
03.02.2016 10:42 0,7 C 0,8 C 84 % 1017,8 hPa 0,0 mm 1,3 km/h (1 Bft) W 270 -1,7 C 0,0 km/h (0 Bft)
03.02.2016 10:45 0,7 C 0,8 C 84 % 1017,5 hPa 0,0 mm 1,0 km/h (0 Bft) W 270 -1,7 C 0,0 km/h (0 Bft)
03.02.2016 10:50 0,7 C 0,7 C 84 % 1017,5 hPa 0,0 mm 0,5 km/h (0 Bft) W-SW 247 -1,7 C 0,0 km/h (0 Bft)
03.02.2016 10:55 0,7 C 0,7 C 84 % 1017,5 hPa 0,0 mm 0,8 km/h (0 Bft) W-NW 292 -1,7 C 0,0 km/h (0 Bft)
03.02.2016 11:00 0,7 C 0,7 C 84 % 1017,5 hPa 0,0 mm 2,1 km/h (1 Bft) W-NW 292 -1,7 C 6,0 km/h (2 Bft)
03.02.2016 11:05 0,7 C 0,7 C 84 % 1018,2 hPa 0,0 mm 2,1 km/h (1 Bft) W 270 -1,7 C 0,0 km/h (0 Bft)
03.02.2016 11:10 0,7 C 0,7 C 84 % 1018,2 hPa 0,0 mm 1,8 km/h (1 Bft) W-SW 247 -1,7 C 0,0 km/h (0 Bft)
03.02.2016 11:15 0,7 C 0,7 C 84 % 1018,2 hPa 0,0 mm 2,1 km/h (1 Bft) W 270 -1,7 C 0,0 km/h (0 Bft)
03.02.2016 11:20 0,7 C 0,6 C 84 % 1018,2 hPa 0,0 mm 2,6 km/h (1 Bft) W-SW 247 -1,7 C 4,9 km/h (1 Bft)
03.02.2016 11:25 0,6 C 0,5 C 84 % 1018,2 hPa 0,0 mm 3,1 km/h (1 Bft) W-SW 247 -1,8 C 9,8 km/h (2 Bft)
03.02.2016 11:30 0,6 C 0,5 C 84 % 1018,2 hPa 0,0 mm 4,1 km/h (1 Bft) SW 225 -1,8 C 5,4 km/h (1 Bft)
03.02.2016 11:35 0,6 C 0,5 C 85 % 1018,2 hPa 0,0 mm 4,1 km/h (1 Bft) W-SW 247 -1,6 C 8,5 km/h (2 Bft)
03.02.2016 11:40 0,7 C 0,6 C 85 % 1018,2 hPa 0,0 mm 4,1 km/h (1 Bft) W 270 -1,5 C 4,9 km/h (1 Bft)
03.02.2016 11:45 0,7 C 0,5 C 85 % 1017,8 hPa 0,0 mm 4,7 km/h (1 Bft) W-SW 247 -1,5 C 6,0 km/h (2 Bft)
03.02.2016 11:50 0,7 C 0,8 C 85 % 1017,8 hPa 0,7 mm 3,6 km/h (1 Bft) W-SW 247 -1,5 C 3,1 km/h (1 Bft)
03.02.2016 11:55 0,7 C 0,8 C 85 % 1017,8 hPa 0,0 mm 3,6 km/h (1 Bft) W-SW 247 -1,5 C 4,4 km/h (1 Bft)
03.02.2016 12:00 0,8 C 0,9 C 85 % 1017,8 hPa 0,0 mm 3,9 km/h (1 Bft) NW 315 -1,4 C 3,1 km/h (1 Bft)
03.02.2016 12:05 0,8 C 1,0 C 85 % 1017,9 hPa 0,0 mm 3,9 km/h (1 Bft) W-NW 292 -1,4 C 2,6 km/h (1 Bft)
03.02.2016 12:10 0,9 C 1,0 C 85 % 1017,9 hPa 0,0 mm 2,3 km/h (1 Bft) W-NW 292 -1,3 C 6,5 km/h (2 Bft)
03.02.2016 12:15 0,9 C 1,0 C 85 % 1017,9 hPa 0,0 mm 3,6 km/h (1 Bft) W-NW 292 -1,3 C 7,5 km/h (2 Bft)
03.02.2016 12:20 0,8 C 0,9 C 85 % 1017,9 hPa 0,0 mm 4,4 km/h (1 Bft) W-NW 292 -1,4 C 3,1 km/h (1 Bft)
03.02.2016 12:25 0,9 C 1,0 C 85 % 1017,7 hPa 0,0 mm 4,1 km/h (1 Bft) W-SW 247 -1,3 C 10,4 km/h (2 Bft)
03.02.2016 12:30 0,9 C 1,0 C 85 % 1017,7 hPa 0,7 mm 4,4 km/h (1 Bft) W-SW 247 -1,3 C 5,7 km/h (1 Bft)
03.02.2016 12:35 0,8 C 0,9 C 85 % 1017,7 hPa 0,0 mm 4,4 km/h (1 Bft) W-SW 247 -1,4 C 8,8 km/h (2 Bft)
03.02.2016 12:40 0,8 C 0,8 C 85 % 1017,7 hPa 0,0 mm 4,9 km/h (1 Bft) SW 225 -1,4 C 10,1 km/h (2 Bft)
03.02.2016 12:45 0,8 C 0,7 C 85 % 1017,8 hPa 0,0 mm 5,4 km/h (1 Bft) W-SW 247 -1,4 C 5,7 km/h (1 Bft)
03.02.2016 12:50 0,8 C 1,0 C 85 % 1017,8 hPa 0,0 mm 3,9 km/h (1 Bft) W-SW 247 -1,4 C 0,0 km/h (0 Bft)
03.02.2016 12:55 0,8 C 1,1 C 85 % 1017,8 hPa 0,0 mm 2,8 km/h (1 Bft) W-NW 292 -1,4 C 6,2 km/h (2 Bft)
03.02.2016 13:00 0,9 C 1,1 C 85 % 1017,8 hPa 0,0 mm 3,6 km/h (1 Bft) W 270 -1,3 C 7,0 km/h (2 Bft)
03.02.2016 13:05 0,9 C 1,1 C 85 % 1017,5 hPa 0,0 mm 3,9 km/h (1 Bft) W 270 -1,3 C 5,4 km/h (1 Bft)
03.02.2016 13:10 0,8 C 0,9 C 85 % 1017,5 hPa 0,0 mm 4,1 km/h (1 Bft) W-SW 247 -1,4 C 5,4 km/h (1 Bft)
03.02.2016 13:15 0,8 C 0,8 C 85 % 1017,5 hPa 0,0 mm 4,4 km/h (1 Bft) W-SW 247 -1,4 C 7,5 km/h (2 Bft)
03.02.2016 13:20 0,8 C 0,7 C 85 % 1017,5 hPa 0,0 mm 5,2 km/h (1 Bft) W 270 -1,4 C 3,6 km/h (1 Bft)
03.02.2016 13:25 0,8 C 0,7 C 85 % 1017,6 hPa 0,0 mm 5,2 km/h (1 Bft) W-SW 247 -1,4 C 9,3 km/h (2 Bft)
03.02.2016 13:30 0,9 C 0,9 C 85 % 1017,6 hPa 0,7 mm 4,1 km/h (1 Bft) W-NW 292 -1,3 C 3,4 km/h (1 Bft)
03.02.2016 13:35 0,9 C 1,0 C 85 % 1017,6 hPa 0,0 mm 4,7 km/h (1 Bft) W 270 -1,3 C 5,2 km/h (1 Bft)
03.02.2016 13:40 0,9 C 1,1 C 85 % 1017,6 hPa 0,0 mm 3,6 km/h (1 Bft) W 270 -1,3 C 3,9 km/h (1 Bft)
03.02.2016 13:45 0,9 C 1,1 C 85 % 1017,4 hPa 0,0 mm 3,4 km/h (1 Bft) W-NW 292 -1,3 C 9,6 km/h (2 Bft)
03.02.2016 13:50 0,9 C 0,8 C 85 % 1017,4 hPa 0,0 mm 5,7 km/h (1 Bft) W 270 -1,3 C 8,5 km/h (2 Bft)
03.02.2016 13:55 0,9 C 0,7 C 85 % 1017,4 hPa 0,0 mm 6,5 km/h (2 Bft) NW 315 -1,3 C 7,3 km/h (2 Bft)
03.02.2016 14:00 0,9 C 0,7 C 85 % 1017,4 hPa 0,0 mm 6,0 km/h (2 Bft) W-SW 247 -1,3 C 12,4 km/h (3 Bft)
03.02.2016 14:05 0,9 C 0,7 C 85 % 1017,2 hPa 0,0 mm 6,0 km/h (2 Bft) SW 225 -1,3 C 9,1 km/h (2 Bft)
03.02.2016 14:10 1,0 C 0,6 C 85 % 1017,2 hPa 0,0 mm 7,0 km/h (2 Bft) W-SW 247 -1,2 C 14,0 km/h (3 Bft)
03.02.2016 14:15 1,0 C 0,5 C 85 % 1017,2 hPa 0,7 mm 7,3 km/h (2 Bft) W-SW 247 -1,2 C 12,4 km/h (3 Bft)
03.02.2016 14:20 1,0 C 0,5 C 85 % 1017,2 hPa 0,0 mm 7,8 km/h (2 Bft) W-SW 247 -1,2 C 9,1 km/h (2 Bft)
03.02.2016 14:25 1,0 C 0,5 C 85 % 1017,2 hPa 0,0 mm 7,5 km/h (2 Bft) NW 315 -1,2 C 7,8 km/h (2 Bft)
03.02.2016 14:30 1,0 C 0,6 C 85 % 1017,2 hPa 0,0 mm 6,7 km/h (2 Bft) W-SW 247 -1,2 C 10,6 km/h (2 Bft)
03.02.2016 14:35 1,0 C 0,6 C 85 % 1017,2 hPa 0,0 mm 6,7 km/h (2 Bft) W 270 -1,2 C 6,7 km/h (2 Bft)
03.02.2016 14:40 1,0 C 0,6 C 85 % 1017,2 hPa 0,0 mm 7,8 km/h (2 Bft) W-SW 247 -1,2 C 15,0 km/h (3 Bft)
03.02.2016 14:45 1,1 C 0,6 C 85 % 1017,2 hPa 0,0 mm 7,8 km/h (2 Bft) W-SW 247 -1,1 C 9,6 km/h (2 Bft)
03.02.2016 14:50 1,1 C 0,7 C 85 % 1017,2 hPa 0,0 mm 7,3 km/h (2 Bft) W-SW 247 -1,1 C 4,9 km/h (1 Bft)
03.02.2016 14:55 1,1 C 0,8 C 85 % 1017,2 hPa 0,0 mm 6,0 km/h (2 Bft) W 270 -1,1 C 4,7 km/h (1 Bft)
03.02.2016 15:00 1,1 C 0,8 C 85 % 1017,2 hPa 0,7 mm 6,0 km/h (2 Bft) NW 315 -1,1 C 9,6 km/h (2 Bft)
03.02.2016 15:05 1,1 C 0,7 C 85 % 1017,1 hPa 0,0 mm 7,5 km/h (2 Bft) W-SW 247 -1,1 C 12,2 km/h (2 Bft)
03.02.2016 15:10 1,1 C 0,4 C 85 % 1017,1 hPa 0,0 mm 9,3 km/h (2 Bft) S 180 -1,1 C 8,0 km/h (2 Bft)
03.02.2016 15:15 1,2 C 0,4 C 85 % 1017,1 hPa 0,0 mm 10,4 km/h (2 Bft) W-SW 247 -1,0 C 7,0 km/h (2 Bft)
03.02.2016 15:20 1,2 C 0,5 C 85 % 1017,1 hPa 0,0 mm 9,3 km/h (2 Bft) S-SW 202 -1,0 C 11,7 km/h (2 Bft)
03.02.2016 15:25 1,4 C 0,6 C 89 % 1016,9 hPa 0,0 mm 8,5 km/h (2 Bft) W-SW 247 -0,2 C 5,4 km/h (1 Bft)
03.02.2016 15:30 1,4 C 1,0 C 88 % 1016,9 hPa 0,0 mm 4,9 km/h (1 Bft) W-SW 247 -0,4 C 3,9 km/h (1 Bft)
03.02.2016 15:35 1,4 C 1,2 C 88 % 1016,9 hPa 0,0 mm 2,8 km/h (1 Bft) W 270 -0,4 C 0,0 km/h (0 Bft)
03.02.2016 15:40 1,4 C 1,2 C 88 % 1016,9 hPa 0,0 mm 1,8 km/h (1 Bft) SW 225 -0,4 C 2,8 km/h (1 Bft)
03.02.2016 15:45 1,3 C 1,1 C 88 % 1017,0 hPa 0,0 mm 2,1 km/h (1 Bft) SW 225 -0,5 C 10,6 km/h (2 Bft)
03.02.2016 15:50 1,3 C 1,1 C 88 % 1017,0 hPa 0,0 mm 4,1 km/h (1 Bft) W-SW 247 -0,5 C 8,3 km/h (2 Bft)
03.02.2016 15:55 1,3 C 0,9 C 89 % 1017,0 hPa 0,0 mm 5,4 km/h (1 Bft) W-SW 247 -0,3 C 10,4 km/h (2 Bft)
03.02.2016 16:00 1,3 C 0,8 C 89 % 1017,0 hPa 0,0 mm 6,0 km/h (2 Bft) W-SW 247 -0,3 C 8,0 km/h (2 Bft)
03.02.2016 16:05 1,2 C 0,8 C 85 % 1017,2 hPa 0,0 mm 6,0 km/h (2 Bft) W 270 -1,0 C 6,2 km/h (2 Bft)
03.02.2016 16:10 1,2 C 0,7 C 89 % 1017,2 hPa 0,0 mm 6,0 km/h (2 Bft) SW 225 -0,4 C 9,6 km/h (2 Bft)
03.02.2016 16:15 1,2 C 0,7 C 89 % 1017,2 hPa 0,0 mm 6,2 km/h (2 Bft) W-SW 247 -0,4 C 7,3 km/h (2 Bft)
03.02.2016 16:20 1,2 C 0,6 C 89 % 1017,2 hPa 0,0 mm 7,0 km/h (2 Bft) NW 315 -0,4 C 7,5 km/h (2 Bft)
03.02.2016 16:25 1,2 C 0,5 C 89 % 1017,0 hPa 0,0 mm 8,0 km/h (2 Bft) W-NW 292 -0,4 C 11,9 km/h (2 Bft)
03.02.2016 16:30 1,2 C 0,4 C 89 % 1017,0 hPa 0,0 mm 7,8 km/h (2 Bft) W 270 -0,4 C 9,3 km/h (2 Bft)
03.02.2016 16:35 1,2 C 0,6 C 89 % 1017,0 hPa 0,0 mm 6,7 km/h (2 Bft) W-SW 247 -0,4 C 3,6 km/h (1 Bft)
03.02.2016 16:40 1,1 C 0,5 C 89 % 1017,0 hPa 0,0 mm 6,7 km/h (2 Bft) W 270 -0,5 C 15,5 km/h (3 Bft)
03.02.2016 16:42 1,1 C 0,5 C 89 % 1017,0 hPa 0,0 mm 6,7 km/h (2 Bft) W 270 -0,5 C 15,5 km/h (3 Bft)
03.02.2016 16:45 1,1 C 0,3 C 89 % 1017,0 hPa 0,0 mm 8,0 km/h (2 Bft) NW 315 -0,5 C 18,4 km/h (3 Bft)
03.02.2016 16:50 1,1 C 0,3 C 89 % 1017,0 hPa 0,7 mm 8,5 km/h (2 Bft) W 270 -0,5 C 9,6 km/h (2 Bft)
03.02.2016 16:55 1,1 C 0,3 C 89 % 1017,0 hPa 0,0 mm 8,0 km/h (2 Bft) W-NW 292 -0,5 C 14,5 km/h (3 Bft)
03.02.2016 17:00 1,0 C 0,2 C 89 % 1017,0 hPa 0,0 mm 8,5 km/h (2 Bft) W 270 -0,6 C 10,1 km/h (2 Bft)
03.02.2016 17:05 1,0 C 0,1 C 89 % 1017,2 hPa 0,0 mm 9,3 km/h (2 Bft) W 270 -0,6 C 16,3 km/h (3 Bft)
03.02.2016 17:10 0,8 C -0,1 C 90 % 1017,2 hPa 0,0 mm 9,8 km/h (2 Bft) W-NW 292 -0,6 C 10,6 km/h (2 Bft)
03.02.2016 17:15 0,7 C -0,3 C 90 % 1017,2 hPa 0,0 mm 10,9 km/h (2 Bft) W-NW 292 -0,7 C 9,1 km/h (2 Bft)
03.02.2016 17:20 0,6 C -0,5 C 90 % 1017,2 hPa 0,0 mm 10,9 km/h (2 Bft) W-NW 292 -0,8 C 11,9 km/h (2 Bft)
03.02.2016 17:25 0,6 C -0,4 C 90 % 1017,3 hPa 0,0 mm 10,1 km/h (2 Bft) W-SW 247 -0,8 C 16,1 km/h (3 Bft)
03.02.2016 17:30 0,6 C -0,3 C 91 % 1017,3 hPa 0,0 mm 12,7 km/h (3 Bft) W-SW 247 -0,7 C 21,2 km/h (4 Bft)
03.02.2016 17:35 0,4 C -0,5 C 91 % 1017,3 hPa 0,0 mm 15,5 km/h (3 Bft) W 270 -0,9 C 24,3 km/h (4 Bft)
03.02.2016 17:40 0,4 C -0,5 C 91 % 1017,3 hPa 0,0 mm 13,5 km/h (3 Bft) SW 225 -0,9 C 18,4 km/h (3 Bft)
03.02.2016 17:45 0,4 C -0,7 C 91 % 1017,8 hPa 0,0 mm 11,1 km/h (2 Bft) W-SW 247 -0,9 C 11,1 km/h (2 Bft)
03.02.2016 17:50 0,5 C -0,6 C 91 % 1017,8 hPa 0,0 mm 11,1 km/h (2 Bft) SW 225 -0,8 C 21,5 km/h (4 Bft)
03.02.2016 17:55 0,5 C -0,6 C 91 % 1017,8 hPa 0,0 mm 11,1 km/h (2 Bft) W-SW 247 -0,8 C 11,9 km/h (2 Bft)
03.02.2016 18:00 0,5 C -0,4 C 91 % 1017,8 hPa 0,0 mm 9,1 km/h (2 Bft) W 270 -0,8 C 8,8 km/h (2 Bft)
03.02.2016 18:05 0,5 C -0,3 C 91 % 1018,1 hPa 0,0 mm 7,5 km/h (2 Bft) W-SW 247 -0,8 C 6,0 km/h (2 Bft)
03.02.2016 18:10 0,5 C -0,3 C 91 % 1018,1 hPa 0,0 mm 7,5 km/h (2 Bft) W 270 -0,8 C 7,3 km/h (2 Bft)
03.02.2016 18:15 0,6 C -0,3 C 91 % 1018,1 hPa 0,0 mm 8,0 km/h (2 Bft) W-SW 247 -0,7 C 7,3 km/h (2 Bft)
03.02.2016 18:20 0,5 C -0,4 C 91 % 1018,1 hPa 0,0 mm 8,0 km/h (2 Bft) W 270 -0,8 C 13,5 km/h (3 Bft)
03.02.2016 18:25 0,6 C -0,3 C 91 % 1019,0 hPa 0,0 mm 8,5 km/h (2 Bft) W 270 -0,7 C 15,8 km/h (3 Bft)
03.02.2016 18:30 0,5 C -0,5 C 91 % 1019,0 hPa 0,0 mm 9,3 km/h (2 Bft) W-SW 247 -0,8 C 9,6 km/h (2 Bft)
03.02.2016 18:35 0,6 C -0,5 C 91 % 1019,0 hPa 0,0 mm 10,6 km/h (2 Bft) W 270 -0,7 C 18,6 km/h (3 Bft)
03.02.2016 18:40 0,5 C -0,6 C 91 % 1019,0 hPa 0,0 mm 11,7 km/h (2 Bft) S-SO 157 -0,8 C 32,1 km/h (5 Bft)
03.02.2016 18:45 0,5 C -0,6 C 91 % 1019,5 hPa 0,0 mm 11,4 km/h (2 Bft) W 270 -0,8 C 19,2 km/h (3 Bft)
03.02.2016 18:50 0,4 C -0,7 C 90 % 1019,5 hPa 0,0 mm 11,7 km/h (2 Bft) W-SW 247 -1,0 C 11,1 km/h (2 Bft)
03.02.2016 18:55 0,4 C -0,7 C 90 % 1019,5 hPa 0,0 mm 11,4 km/h (2 Bft) W-SW 247 -1,0 C 12,7 km/h (3 Bft)
03.02.2016 19:00 0,3 C -0,7 C 90 % 1019,5 hPa 0,0 mm 10,1 km/h (2 Bft) W 270 -1,1 C 8,3 km/h (2 Bft)
03.02.2016 19:05 0,3 C -0,7 C 90 % 1020,2 hPa 0,0 mm 10,9 km/h (2 Bft) W-NW 292 -1,1 C 15,0 km/h (3 Bft)
03.02.2016 19:10 0,2 C -0,6 C 90 % 1020,2 hPa 0,0 mm 12,4 km/h (3 Bft) W 270 -1,2 C 9,3 km/h (2 Bft)
03.02.2016 19:15 0,1 C -0,6 C 85 % 1020,2 hPa 0,0 mm 12,4 km/h (3 Bft) W-SW 247 -2,1 C 12,9 km/h (3 Bft)
03.02.2016 19:20 0,1 C -0,9 C 85 % 1020,2 hPa 0,0 mm 11,4 km/h (2 Bft) SW 225 -2,1 C 10,6 km/h (2 Bft)
03.02.2016 19:25 0,1 C -0,8 C 85 % 1020,7 hPa 0,0 mm 10,9 km/h (2 Bft) W-NW 292 -2,1 C 9,1 km/h (2 Bft)
03.02.2016 19:30 0,0 C -0,8 C 85 % 1020,7 hPa 0,0 mm 9,6 km/h (2 Bft) NW 315 -2,2 C 14,5 km/h (3 Bft)
03.02.2016 19:35 0,0 C -0,8 C 90 % 1020,7 hPa 0,0 mm 9,3 km/h (2 Bft) NW 315 -1,4 C 20,7 km/h (4 Bft)
03.02.2016 19:40 -0,1 C -0,9 C 85 % 1020,7 hPa 0,0 mm 10,1 km/h (2 Bft) NW 315 -2,3 C 19,4 km/h (3 Bft)
03.02.2016 19:45 -0,1 C -1,1 C 91 % 1021,3 hPa 0,0 mm 11,7 km/h (2 Bft) NW 315 -1,4 C 14,8 km/h (3 Bft)
03.02.2016 19:50 -0,2 C -0,9 C 91 % 1021,3 hPa 0,0 mm 12,7 km/h (3 Bft) NW 315 -1,5 C 33,1 km/h (5 Bft)
03.02.2016 19:55 -0,5 C -1,2 C 91 % 1021,3 hPa 0,0 mm 14,0 km/h (3 Bft) NW 315 -1,8 C 16,1 km/h (3 Bft)
03.02.2016 20:00 -0,6 C -1,4 C 86 % 1021,3 hPa 0,0 mm 18,1 km/h (3 Bft) NW 315 -2,6 C 26,2 km/h (4 Bft)
03.02.2016 20:05 -0,6 C -1,4 C 86 % 1021,9 hPa 0,0 mm 15,8 km/h (3 Bft) NW 315 -2,6 C 13,2 km/h (3 Bft)
03.02.2016 20:10 -0,5 C -1,2 C 86 % 1021,9 hPa 0,0 mm 14,5 km/h (3 Bft) NW 315 -2,5 C 10,1 km/h (2 Bft)
03.02.2016 20:15 -0,5 C -1,6 C 86 % 1021,9 hPa 0,0 mm 14,5 km/h (3 Bft) NW 315 -2,5 C 19,4 km/h (3 Bft)
03.02.2016 20:20 -0,5 C -1,6 C 86 % 1021,9 hPa 0,0 mm 14,0 km/h (3 Bft) NW 315 -2,5 C 14,0 km/h (3 Bft)
03.02.2016 20:25 -0,5 C -1,4 C 86 % 1022,3 hPa 0,0 mm 11,9 km/h (2 Bft) NW 315 -2,5 C 15,0 km/h (3 Bft)
03.02.2016 20:30 -0,5 C -1,5 C 86 % 1022,3 hPa 0,0 mm 11,1 km/h (2 Bft) NW 315 -2,5 C 13,5 km/h (3 Bft)
03.02.2016 20:35 -0,5 C -1,6 C 86 % 1022,3 hPa 0,0 mm 12,2 km/h (2 Bft) NW 315 -2,5 C 22,5 km/h (4 Bft)
03.02.2016 20:40 -0,6 C -1,6 C 86 % 1022,3 hPa 0,0 mm 11,4 km/h (2 Bft) NW 315 -2,6 C 9,8 km/h (2 Bft)
03.02.2016 20:45 -0,6 C -1,6 C 86 % 1022,4 hPa 0,0 mm 11,1 km/h (2 Bft) NW 315 -2,6 C 22,0 km/h (4 Bft)
03.02.2016 20:50 -0,7 C -1,8 C 88 % 1022,4 hPa 0,0 mm 10,9 km/h (2 Bft) NW 315 -2,4 C 19,7 km/h (3 Bft)
03.02.2016 20:55 -0,8 C -1,9 C 88 % 1022,4 hPa 0,0 mm 10,4 km/h (2 Bft) NW 315 -2,5 C 16,3 km/h (3 Bft)
03.02.2016 21:00 -0,8 C -2,0 C 87 % 1022,4 hPa 0,0 mm 10,6 km/h (2 Bft) NW 315 -2,7 C 10,6 km/h (2 Bft)
03.02.2016 21:05 -0,8 C -2,1 C 87 % 1022,6 hPa 0,0 mm 11,9 km/h (2 Bft) NW 315 -2,7 C 14,8 km/h (3 Bft)
03.02.2016 21:10 -0,9 C -2,0 C 85 % 1022,6 hPa 0,0 mm 10,6 km/h (2 Bft) NW 315 -3,1 C 8,3 km/h (2 Bft)
03.02.2016 21:15 -0,9 C -1,9 C 85 % 1022,6 hPa 0,0 mm 10,1 km/h (2 Bft) NW 315 -3,1 C 15,3 km/h (3 Bft)
03.02.2016 21:20 -0,9 C -2,0 C 85 % 1022,6 hPa 0,0 mm 10,6 km/h (2 Bft) NW 315 -3,1 C 8,3 km/h (2 Bft)
03.02.2016 21:25 -1,0 C -2,1 C 86 % 1023,0 hPa 0,0 mm 9,8 km/h (2 Bft) NW 315 -3,0 C 14,5 km/h (3 Bft)
03.02.2016 21:30 -1,3 C -2,3 C 85 % 1023,0 hPa 0,0 mm 8,3 km/h (2 Bft) NW 315 -3,5 C 11,4 km/h (2 Bft)
03.02.2016 21:35 -1,2 C -2,3 C 85 % 1023,0 hPa 0,0 mm 8,8 km/h (2 Bft) NW 315 -3,4 C 7,8 km/h (2 Bft)
03.02.2016 21:40 -1,3 C -2,4 C 85 % 1023,0 hPa 0,0 mm 9,3 km/h (2 Bft) NW 315 -3,5 C 14,0 km/h (3 Bft)
03.02.2016 21:45 -1,3 C -2,5 C 85 % 1023,0 hPa 0,0 mm 9,6 km/h (2 Bft) NW 315 -3,5 C 24,1 km/h (4 Bft)
03.02.2016 21:50 -1,3 C -2,6 C 85 % 1023,0 hPa 0,0 mm 10,9 km/h (2 Bft) NW 315 -3,5 C 7,5 km/h (2 Bft)
03.02.2016 21:55 -1,4 C -2,6 C 85 % 1023,0 hPa 0,0 mm 10,1 km/h (2 Bft) NW 315 -3,6 C 11,4 km/h (2 Bft)
03.02.2016 22:00 -1,5 C -2,6 C 85 % 1023,0 hPa 0,0 mm 9,3 km/h (2 Bft) NW 315 -3,7 C 10,4 km/h (2 Bft)
03.02.2016 22:05 -1,5 C -2,7 C 85 % 1023,4 hPa 0,0 mm 10,4 km/h (2 Bft) NW 315 -3,7 C 17,3 km/h (3 Bft)
03.02.2016 22:10 -1,6 C -2,9 C 85 % 1023,4 hPa 0,0 mm 10,9 km/h (2 Bft) NW 315 -3,8 C 9,8 km/h (2 Bft)
03.02.2016 22:15 -1,5 C -2,8 C 84 % 1023,4 hPa 0,0 mm 10,6 km/h (2 Bft) NW 315 -3,8 C 15,5 km/h (3 Bft)
03.02.2016 22:20 -1,4 C -2,6 C 84 % 1023,4 hPa 0,0 mm 10,1 km/h (2 Bft) NW 315 -3,7 C 10,9 km/h (2 Bft)
03.02.2016 22:25 -1,4 C -2,5 C 84 % 1023,5 hPa 0,0 mm 9,6 km/h (2 Bft) NW 315 -3,7 C 14,0 km/h (3 Bft)
03.02.2016 22:30 -1,3 C -2,4 C 84 % 1023,5 hPa 0,0 mm 9,3 km/h (2 Bft) NW 315 -3,6 C 12,7 km/h (3 Bft)
03.02.2016 22:35 -1,4 C -2,4 C 83 % 1023,5 hPa 0,0 mm 9,1 km/h (2 Bft) NW 315 -3,9 C 11,7 km/h (2 Bft)
03.02.2016 22:40 -1,4 C -2,5 C 83 % 1023,5 hPa 0,0 mm 9,1 km/h (2 Bft) NW 315 -3,9 C 18,1 km/h (3 Bft)
03.02.2016 22:43 -1,4 C -2,5 C 83 % 1023,5 hPa 0,0 mm 9,1 km/h (2 Bft) NW 315 -3,9 C 18,1 km/h (3 Bft)
03.02.2016 22:45 -1,4 C -2,6 C 83 % 1023,5 hPa 0,0 mm 10,6 km/h (2 Bft) NW 315 -3,9 C 17,1 km/h (3 Bft)
03.02.2016 22:50 -1,5 C -2,7 C 82 % 1023,5 hPa 0,0 mm 10,4 km/h (2 Bft) NW 315 -4,2 C 7,3 km/h (2 Bft)
03.02.2016 22:55 -1,6 C -2,7 C 82 % 1023,5 hPa 0,0 mm 8,8 km/h (2 Bft) NW 315 -4,3 C 6,5 km/h (2 Bft)
03.02.2016 23:00 -1,7 C -2,4 C 82 % 1023,5 hPa 0,0 mm 5,7 km/h (1 Bft) NW 315 -4,4 C 2,8 km/h (1 Bft)
03.02.2016 23:05 -1,7 C -2,4 C 82 % 1023,3 hPa 0,0 mm 5,4 km/h (1 Bft) NW 315 -4,4 C 8,8 km/h (2 Bft)
03.02.2016 23:10 -1,5 C -2,3 C 82 % 1023,3 hPa 0,0 mm 6,2 km/h (2 Bft) NW 315 -4,2 C 12,2 km/h (2 Bft)
03.02.2016 23:15 -1,5 C -2,3 C 82 % 1023,3 hPa 0,0 mm 6,7 km/h (2 Bft) NW 315 -4,2 C 4,4 km/h (1 Bft)
03.02.2016 23:20 -1,5 C -2,3 C 82 % 1023,3 hPa 0,0 mm 6,7 km/h (2 Bft) NW 315 -4,2 C 8,5 km/h (2 Bft)
03.02.2016 23:25 -1,4 C -2,3 C 81 % 1023,1 hPa 0,0 mm 7,3 km/h (2 Bft) NW 315 -4,2 C 10,6 km/h (2 Bft)
03.02.2016 23:30 -1,3 C -2,2 C 81 % 1023,1 hPa 0,0 mm 7,5 km/h (2 Bft) NW 315 -4,1 C 9,3 km/h (2 Bft)
03.02.2016 23:35 -1,3 C -2,2 C 80 % 1023,1 hPa 0,0 mm 7,5 km/h (2 Bft) NW 315 -4,3 C 9,3 km/h (2 Bft)
03.02.2016 23:40 -1,4 C -2,2 C 79 % 1023,1 hPa 0,0 mm 7,3 km/h (2 Bft) NW 315 -4,6 C 3,4 km/h (1 Bft)
03.02.2016 23:45 -1,6 C -2,2 C 80 % 1023,1 hPa 0,0 mm 5,7 km/h (1 Bft) NW 315 -4,6 C 7,3 km/h (2 Bft)
03.02.2016 23:50 -1,4 C -2,0 C 80 % 1023,1 hPa 0,0 mm 4,9 km/h (1 Bft) NW 315 -4,4 C 9,8 km/h (2 Bft)
03.02.2016 23:55 -1,4 C -2,0 C 79 % 1023,1 hPa 0,0 mm 5,7 km/h (1 Bft) NW 315 -4,6 C 6,0 km/h (2 Bft)
_ Min-Zeit 23:05 22:10 02:50 08:00 - 07:15 - - 23:45 15:35
Minimum _ -1,7 C -2,9 C 59 % 1016,4 hPa - 0,0 km/h (0 Bft) - - -4,6 C 0,0 km/h (0 Bft)
_ Max-Zeit 02:50 02:45 19:55 23:00 16:50 00:00 - - 06:15 00:55
Maximum _ 7,5 C 7,2 C 91 % 1023,5 hPa 0,7 mm 20,2 km/h
NW (4 Bft)
- - 1,7 C 35,5 km/h
W (5 Bft)
Durchschnitt _ 2,1 C 1,6 C 81 % 1018,6 hPa #7,6 mm 7,4 km/h (2 Bft) NW - -1,0 C 9,8 km/h (2 Bft)